User: anonymous   Login
Location: Betra
(48.4113°N, 8.6634°E)
Time: 08:27:23
(UTC+00:00)
Language:

SL-16 R/B - Orbit

View from above orbital plane
View from above orbital plane
View from above satellite
View from above satellite

Ground track
Ground track

The orbit data is extracted from the following two-line orbital elements,

1 31793U 07029B   24203.81744590  .00000343  00000-0  20298-3 0  9994
2 31793  70.9767 344.8012 0002014 255.4825 209.3925 14.14639960881090
Epoch (UTC): 21 July 2024 19:37:07
Eccentricity: 0.0002014
inclination: 70.9767°
perigee height: 842 km
apogee height: 845 km
right ascension of ascending node: 344.8012°
argument of perigee: 255.4825°
revolutions per day: 14.14639960
mean anomaly at epoch: 209.3925°
orbit number at epoch: 88109

The dashed part of the orbit path shows where the satellite is in the earth's shadow,  

DLR